User: anonymous   Login
Location: Unspecified
(0.0000°N, 0.0000°E)
Time: 10:01:03
(UTC+00:00)
Language:

SENTINEL-2C - Orbit

View from above orbital plane
View from above orbital plane
View from above satellite
View from above satellite

Ground track
Ground track

The orbit is defined by the following mean orbital elements,

1 60989U          26145.44524914 +.00000000 +00000-0 +52394-4 0 00003
2 60989  98.5694 220.5481 0001409  85.5312 274.6032 14.30822603    08
Epoch (UTC): 25 May 2026 10:41:09
Eccentricity: 0.0001409
inclination: 98.5694°
perigee height: 788 km
apogee height: 790 km
right ascension of ascending node: 220.5481°
argument of perigee: 85.5312°
revolutions per day: 14.30822603
mean anomaly at epoch: 274.6032°

The dashed part of the orbit path shows where the satellite is in the earth's shadow,  

DLR